Regional Weather Roundup
Issued by NWS

Home | Current Version | Previous Version | Text Only | Print | Product List | Glossary Off
Versions: 1 2 3 4 5 6 7 8 9 10 11 12 13 14 15 16 17 18 19 20 21 22 23 24 25 26 27 28 29 30 31 32 33 34 35 36 37 38 39 40 41 42 43 44 45 46 47 48 49 50

000
ASUS43 KMPX 161801
RWRMN
WEATHER ROUNDUP FOR MINNESOTA
NATIONAL WEATHER SERVICE TWIN CITIES/CHANHASSEN MN
1200 PM CST THU NOV 16 2017


NOTE: "FAIR" INDICATES FEW OR NO CLOUDS BELOW 12,000 FEET WITH NO
SIGNIFICANT WEATHER AND/OR OBSTRUCTIONS TO VISIBILITY. N/A MEANS
CURRENT SKY AND/OR WEATHER CONDITIONS ARE NOT AVAILABLE.

MNZ060>063-068>070-161900-
   Twin Cities Metro

CITY           SKY/WX    TMP DP  RH WIND       PRES   REMARKS
TWIN CITIES    CLOUDY    30  24  78 SE13      30.20F WCI  20
6HR MIN TEMP:  29; 6HR MAX TEMP:  31;

ST PAUL        CLOUDY    30  23  75 SE9       30.22F WCI  22
CRYSTAL        CLOUDY    29  20  69 E8        30.19F WCI  21
BLAINE         CLOUDY    30  23  74 E9        30.19F WCI  22
LAKEVILLE      CLOUDY    28  25  86 SE7       30.20F WCI  21
EDEN PRAIRIE   CLOUDY    31  23  72 SE8       30.19F WCI  23
6HR MIN TEMP:  29; 6HR MAX TEMP:  31;

SOUTH ST PAUL  CLOUDY    31  24  73 E5        30.20F WCI  26
LAKE ELMO      CLOUDY    32  23  69 SE10      30.21F WCI  24
$$
MNZ001>005-007-008-013>017-022>024-027-028-161900-
   Northwest Minnesota

CITY           SKY/WX    TMP DP  RH WIND       PRES   REMARKS
BEMIDJI        CLOUDY    24  20  85 SE15      30.07F WCI  11
HALLOCK        CLOUDY    25  21  86 CALM      30.01F
ROSEAU         CLOUDY    23  18  80 SE17      30.06F WCI   9
WARROAD        CLOUDY    21  18  86 SE15      30.08F WCI   8
CROOKSTON      CLOUDY    27  23  86 S21       30.03F WCI  13
FOSSTON        CLOUDY    25  21  86 SE13      30.04F WCI  13
DETROIT LAKES  CLOUDY    27  25  93 SE20G29   30.03F WCI  13
MOORHEAD       CLOUDY    28  25  86 SE21G26   30.04F WCI  15
PARK RAPIDS    CLOUDY    27  19  72 SE18      30.08F WCI  14
MAHNOMEN       CLOUDY    26  21  83 SE15G22   30.03F WCI  13
$$
MNZ006-009>011-018-025>026-161900-
   North Central Minnesota

CITY           SKY/WX    TMP DP  RH WIND       PRES   REMARKS
BAUDETTE       CLOUDY    21  15  78 SE15G23   30.11F WCI   8
FLAG ISLAND    CLOUDY    19  16  86 SE12G18   30.10F WCI   7
INTL FALLS     CLOUDY    21  14  74 SE14      30.16F WCI   8
6HR MIN TEMP:  18; 6HR MAX TEMP:  21;

WASKISH        CLOUDY    23  18  80 E14       30.10F WCI  11
BIG FORK       CLOUDY    23  18  80 E6        30.14F WCI  16
LONGVILLE      CLOUDY    25  19  80 SE14      30.12F WCI  13
GRAND RAPIDS   CLOUDY    23  18  81 SE14      30.16F WCI  11
CRANE LAKE     CLOUDY    19  16  86 SE3       30.22F
ORR            CLOUDY    19  14  79 SE6       30.15F WCI  11
COOK           CLOUDY    19  16  86 SE12G17   30.19F WCI   7
WALKER         CLOUDY    26  19  76 SE8G16    30.10F WCI  17
$$
MNZ012-019>021-037-161900-
   Northeast Minnesota

CITY           SKY/WX    TMP DP  RH WIND       PRES   REMARKS
DULUTH         FLURRIES  22  21  96 E10       30.20F WCI  11
6HR MIN TEMP:  17; 6HR MAX TEMP:  22; 6HR PCP: TRACE;

ELY            CLOUDY    19  16  86 SE6       30.20F WCI  11
HIBBING        CLOUDY    21  18  88 SE10G20   30.18F WCI  10
EVELETH        CLOUDY    19  16  86 SE9       30.21S WCI   9
DULUTH HARBOR  CLOUDY    28  23  80 E8        30.26F WCI  20
TWO HARBORS    CLOUDY    27  21  80 E8        30.21F WCI  18
SILVER BAY     CLOUDY    25  19  80 E3        30.23F
GRAND MARAIS     N/A     25  16  68 SE6       30.30S WCI  18
G MARAIS ARPRT CLOUDY    19   9  63 CALM      30.21F
$$
MNZ029>031-032-039>041-046>048-054>057-064-161900-
   West Central Minnesota

CITY           SKY/WX    TMP DP  RH WIND       PRES   REMARKS
FERGUS FALLS   CLOUDY    28  25  86 S21       30.09F WCI  15
WHEATON        CLOUDY    27  21  80 SE23G30   30.07F WCI  12
MORRIS         CLOUDY    27  25  93 SE22      30.08F WCI  12
ALEXANDRIA     CLOUDY    27  24  89 SE20      30.09F WCI  13
ELBOW LAKE     CLOUDY    27  25  91 E17G24    30.09S WCI  14
WADENA         CLOUDY    25  21  86 SE17      30.08F WCI  11
GLENWOOD       CLOUDY    27  25  93 SE15      30.11F WCI  15
APPLETON       CLOUDY    27  23  86 CALM      30.11F
BENSON         CLOUDY    27  23  86 S15G22    30.13F WCI  15
ORTONVILLE     CLOUDY    25  21  86 MISG      30.07F
MADISON        CLOUDY    27  27 100 SE20      30.11F WCI  13
WILLMAR        CLOUDY    28  27  93 SE17      30.14F WCI  16
$$
MNZ033>034-036-042>043-049>051-058-059-161900-
   Central Minnesota

CITY           SKY/WX    TMP DP  RH WIND       PRES   REMARKS
ST CLOUD       CLOUDY    27  22  81 SE9       30.18F WCI  18
6HR MIN TEMP:  26; 6HR MAX TEMP:  28;

SAUK CENTRE    CLOUDY    27  24  88 SE14G21   30.11F WCI  16
PAYNESVILLE    CLOUDY    29  26  91 SE12      30.14F WCI  19
AITKIN         CLOUDY    27  18  69 SE12      30.14F WCI  16
PINE RIVER     CLOUDY    25  18  74 SE14      30.16F WCI  13
BRAINERD       CLOUDY    28  19  69 SE12      30.15F WCI  18
STAPLES        CLOUDY    25  19  80 SE13      30.11F WCI  13
LONG PRAIRIE   CLOUDY    27  23  86 E13       30.13F WCI  16
LITTLE FALLS   CLOUDY    28  18  64 SE9       30.16F WCI  20
LITCHFIELD     CLOUDY    30  27  86 SE15      30.14F WCI  19
BUFFALO        CLOUDY    29  23  77 E6        30.19F WCI  23
MAPLE LAKE     CLOUDY    31  26  84 SE6       30.18F WCI  25
HUTCHINSON     CLOUDY    29  26  86 E12       30.16F WCI  20
$$
MNZ037-044-045-052-053-161900-
   East Central Minnesota

CITY           SKY/WX    TMP DP  RH WIND       PRES   REMARKS
PRINCETON      CLOUDY    28  21  74 E9        30.19F WCI  20
MORA           CLOUDY    28  19  69 E8        30.21F WCI  20
CAMBRIDGE      CLOUDY    30  19  64 E10       30.19F WCI  21
RUSH CITY      CLOUDY    30  22  71 SE10      30.21F WCI  21
MOOSE LAKE     CLOUDY    28  21  74 E6        30.18F WCI  22
HINCKLEY       CLOUDY    30  23  74 E10       30.19F WCI  21
CLOQUET        CLOUDY    25  19  80 E9        30.19F WCI  15
MCGREGOR       CLOUDY    28  21  74 SE10      30.17F WCI  19
$$
MNZ071>073-080-081-089-090-097-098-161900-
   Southwest Minnesota

CITY           SKY/WX    TMP DP  RH WIND       PRES   REMARKS
MONTEVIDEO     CLOUDY    27  25  93 S10G18    30.13F WCI  17
GRANITE FALLS  CLOUDY    27  25  90 SE14      30.14F WCI  16
CANBY          CLOUDY    28  25  90 SE14      30.10F WCI  16
MARSHALL       CLOUDY    26  23  88 S15       30.11F WCI  14
REDWOOD FALLS  CLOUDY    27  22  81 SE14      30.15F WCI  16
OLIVIA         CLOUDY    28  25  86 SE16G22   30.14S WCI  17
PIPESTONE      CLOUDY    25  25 100 S13       30.06F WCI  13
WINDOM           N/A     25  14  63 SE9       30.13F WCI  15
WORTHINGTON    CLOUDY    25  24  96 SE12      30.11F WCI  14
JACKSON        CLOUDY    25  23  93 SE7       30.14F FOG     WCI  17
SLAYTON        CLOUDY    25  24  99 SE12      30.10F WCI  14
$$
MNZ065>067-074>077-082>085-091>093-161900-
   South Central Minnesota

CITY           SKY/WX    TMP DP  RH WIND       PRES   REMARKS
MANKATO        CLOUDY    28  24  85 SE14      30.18F WCI  17
NEW ULM        CLOUDY    27  23  86 SE7       30.15F WCI  19
ST JAMES       CLOUDY    27  25  93 SE10      30.18F WCI  17
FAIRMONT       CLOUDY    26  24  92 S15       30.18F WCI  14
GLENCOE        CLOUDY    31  26  84 SE12      30.17F WCI  21
FARIBAULT      CLOUDY    28  25  86 E9        30.20F WCI  20
OWATONNA       CLOUDY    30  25  80 E7        30.20S WCI  23
WASECA         CLOUDY    30  27  86 SE8       30.20F WCI  23
ALBERT LEA     CLOUDY    28  23  80 SE9       30.19F WCI  20
$$
MNZ078>079-086>088-094>096-161900-
   Southeast Minnesota

CITY           SKY/WX    TMP DP  RH WIND       PRES   REMARKS
ROCHESTER      CLOUDY    31  25  78 E9        30.19F WCI  23
6HR MIN TEMP:  26; 6HR MAX TEMP:  31;

RED WING       CLOUDY    30  19  64 SE9       30.21F WCI  22
STANTON        CLOUDY    32  26  77 SE6       30.18F WCI  26
DODGE CENTER   CLOUDY    28  25  86 SE8       30.19F WCI  20
WINONA         CLOUDY    34  27  75 SE6       30.23F WCI  29
AUSTIN         CLOUDY    28  25  86 SE8       30.19F WCI  20
PRESTON        CLOUDY    29  24  81 E6        30.19F WCI  23
$$
ABBREVIATIONS USED IN REMARKS
   TC - TEMPERATURES IN CELSIUS
  WCI - WIND CHILL INDEX
   HX - HEAT INDEX
  VSB - VISIBILITY
$$




USA.gov is the U.S. government's official web portal to all federal, state and local government web resources and services.